Location: Newark
(41.9000°N, 12.4833°E)
Time: 01:21:40
(UTC+00:00)

NOAA 18 - Pass Details

Date: 21 May 2019
Orbit: 840 x 861 km, 99.1° (Epoch: 16 June)

Event Time Altitude Azimuth Distance (km) Brightness Sun altitude
Rises 20:54:13 0° 223° (SW) 3,419 8.2 -20.7°
Reaches altitude 10° 20:59:19 10° 264° (W) 2,496 8.0 -21.2°
Maximum altitude 21:00:06 10° 272° (W) 2,477 8.1 -21.3°
Drops below altitude 10° 21:00:53 10° 281° (W) 2,499 8.2 -21.4°
Sets 21:06:03 0° 322° (NW) 3,447 9.9 -21.9°
